| time (UTC) | temp F | wind direction | speed knots | gust knots | rain 1hr in | rain 24hr in | rain mn in | humidity % | barometer mb |
| 20260506003019 | 59 | 217 | 3.5 | 7.0 | 0.00 | 0.00 | 0.00 | 71 | 1008.1 |
| 20260506001518 | 60 | 203 | 2.6 | 4.3 | 0.00 | 0.00 | 0.00 | 71 | 1007.2 |
| 20260506000009 | 60 | 177 | 1.7 | 5.2 | 0.00 | 0.00 | 0.00 | 71 | 1007.6 |
| 20260505234506 | 58 | 286 | 2.6 | 7.0 | 0.00 | 0.00 | 0.00 | 73 | 1007.9 |
| 20260505233003 | 58 | 157 | 5.2 | 12.2 | 0.00 | 0.00 | 0.00 | 73 | 1007.6 |
| 20260505231521 | 57 | 202 | 7.8 | 18.2 | 0.00 | 0.00 | 0.00 | 74 | 1007.4 |
| 20260505230032 | 56 | 212 | 5.2 | 13.9 | 0.00 | 0.00 | 0.00 | 74 | 1006.0 |
| 20260505224516 | 57 | 207 | 7.8 | 14.8 | 0.00 | 0.00 | 0.00 | 74 | 1005.8 |
| 20260505223013 | 57 | 202 | 7.8 | 13.9 | 0.00 | 0.00 | 0.00 | 73 | 1005.6 |
| 20260505221512 | 58 | 171 | 5.2 | 13.9 | 0.00 | 0.00 | 0.00 | 73 | 1005.4 |
| 20260505220007 | 58 | 190 | 6.1 | 13.9 | 0.00 | 0.00 | 0.00 | 72 | 1005.4 |
| 20260505214505 | 59 | 208 | 7.0 | 13.0 | 0.00 | 0.00 | 0.00 | 71 | 1005.4 |
| 20260505213003 | 60 | 193 | 5.2 | 9.6 | 0.00 | 0.00 | 0.00 | 70 | 1005.3 |
| 20260505211518 | 62 | 178 | 4.3 | 9.6 | 0.00 | 0.00 | 0.00 | 69 | 1005.2 |
| 20260505210015 | 62 | 229 | 8.7 | 18.2 | 0.00 | 0.00 | 0.00 | 69 | 1005.2 |
| 20260505204512 | 62 | 199 | 5.2 | 12.2 | 0.00 | 0.00 | 0.00 | 69 | 1005.1 |
| 20260505203018 | 63 | 212 | 4.3 | 12.2 | 0.00 | 0.00 | 0.00 | 68 | 1005.0 |
| 20260505201513 | 62 | 206 | 6.1 | 12.2 | 0.00 | 0.00 | 0.00 | 68 | 1005.3 |
| 20260505200002 | 61 | 201 | 5.2 | 10.4 | 0.00 | 0.00 | 0.00 | 71 | 1005.6 |
| 20260505194520 | 62 | 173 | 6.1 | 11.3 | 0.00 | 0.00 | 0.00 | 70 | 1005.5 |
| 20260505193002 | 62 | 193 | 7.0 | 13.0 | 0.00 | 0.00 | 0.00 | 68 | 1006.0 |
| 20260505191518 | 63 | 184 | 7.0 | 13.0 | 0.00 | 0.00 | 0.00 | 69 | 1006.4 |
| 20260505190014 | 62 | 188 | 5.2 | 12.2 | 0.00 | 0.00 | 0.00 | 69 | 1006.2 |
| 20260505184510 | 62 | 200 | 6.1 | 11.3 | 0.00 | 0.00 | 0.00 | 69 | 1006.4 |
| 20260505183010 | 62 | 190 | 7.0 | 11.3 | 0.00 | 0.00 | 0.00 | 69 | 1006.7 |
| 20260505181507 | 61 | 207 | 5.2 | 11.3 | 0.00 | 0.00 | 0.00 | 70 | 1006.8 |
| 20260505180004 | 62 | 190 | 5.2 | 13.0 | 0.00 | 0.00 | 0.00 | 70 | 1006.8 |
| 20260505174505 | 62 | 169 | 6.1 | 13.0 | 0.00 | 0.00 | 0.00 | 69 | 1007.1 |
| 20260505173002 | 63 | 237 | 6.1 | 11.3 | 0.00 | 0.00 | 0.00 | 69 | 1007.5 |
| 20260505171517 | 63 | 186 | 4.3 | 8.7 | 0.00 | 0.00 | 0.00 | 69 | 1007.6 |
| 20260505170013 | 62 | 201 | 4.3 | 8.7 | 0.00 | 0.00 | 0.00 | 69 | 1007.7 |
| 20260505164514 | 61 | 174 | 5.2 | 9.6 | 0.00 | 0.00 | 0.00 | 70 | 1008.1 |
| 20260505163011 | 61 | 206 | 4.3 | 13.9 | 0.00 | 0.00 | 0.00 | 70 | 1008.1 |
| 20260505161506 | 61 | 225 | 5.2 | 10.4 | 0.00 | 0.00 | 0.00 | 71 | 1008.1 |
| 20260505153017 | 57 | 200 | 5.2 | 9.6 | 0.00 | 0.00 | 0.00 | 76 | 1008.9 |
| 20260505151515 | 55 | 193 | 6.1 | 9.6 | 0.00 | 0.00 | 0.00 | 78 | 1009.3 |
| 20260505124521 | 56 | 202 | 5.2 | 8.7 | 0.00 | 0.00 | 0.00 | 74 | 1008.8 |
| 20260505123014 | 55 | 196 | 5.2 | 9.6 | 0.00 | 0.00 | 0.00 | 76 | 1008.9 |
| 20260505121522 | 54 | 203 | 4.3 | 7.8 | 0.00 | 0.00 | 0.00 | 76 | 1009.0 |
| 20260505120023 | 55 | 216 | 3.5 | 6.1 | 0.00 | 0.00 | 0.00 | 77 | 1009.2 |
| 20260505114513 | 53 | 176 | 4.3 | 8.7 | 0.00 | 0.00 | 0.00 | 77 | 1009.4 |
| 20260505113011 | 53 | 185 | 4.3 | 7.0 | 0.00 | 0.00 | 0.00 | 77 | 1009.3 |
| 20260505111516 | 52 | 205 | 3.5 | 7.0 | 0.00 | 0.00 | 0.00 | 79 | 1009.4 |
| 20260505101530 | 49 | 182 | 2.6 | 5.2 | 0.00 | 0.00 | 0.00 | 82 | 1009.2 |
| 20260505100037 | 49 | 209 | 1.7 | 6.1 | 0.00 | 0.00 | 0.00 | 82 | 1009.0 |
| 20260505094513 | 49 | 182 | 2.6 | 6.1 | 0.00 | 0.00 | 0.00 | 81 | 1009.0 |
| 20260505093018 | 49 | 197 | 2.6 | 6.1 | 0.00 | 0.00 | 0.00 | 82 | 1009.1 |
| 20260505091514 | 48 | 193 | 1.7 | 5.2 | 0.00 | 0.00 | 0.00 | 82 | 1009.1 |
| 20260505090006 | 48 | 178 | 2.6 | 5.2 | 0.00 | 0.00 | 0.00 | 81 | 1009.2 |
| 20260505084523 | 48 | 185 | 0.9 | 3.5 | 0.00 | 0.00 | 0.00 | 81 | 1009.3 |
| 20260505083023 | 48 | 181 | 2.6 | 5.2 | 0.00 | 0.00 | 0.00 | 81 | 1009.3 |
| 20260505081535 | 48 | 217 | 1.7 | 4.3 | 0.00 | 0.00 | 0.00 | 81 | 1009.3 |
| 20260505080046 | 48 | 190 | 1.7 | 4.3 | 0.00 | 0.00 | 0.00 | 80 | 1009.3 |
| 20260505074531 | 49 | 199 | 2.6 | 4.3 | 0.00 | 0.00 | 0.00 | 80 | 1009.3 |
| 20260505073038 | 49 | 189 | 1.7 | 5.2 | 0.00 | 0.00 | 0.00 | 79 | 1009.2 |
| 20260505071639 | 49 | 217 | 1.7 | 4.3 | 0.00 | 0.00 | 0.00 | 79 | 1009.2 |
| 20260505070002 | 49 | 213 | 2.6 | 7.0 | 0.00 | 0.00 | 0.00 | 78 | 1009.1 |
| 20260505064538 | 49 | 221 | 2.6 | 5.2 | 0.00 | 0.00 | 0.00 | 78 | 1009.0 |
| 20260505063137 | 50 | 198 | 2.6 | 6.1 | 0.00 | 0.00 | 0.00 | 77 | 1009.0 |
| 20260505061617 | 50 | 174 | 0.9 | 5.2 | 0.00 | 0.00 | 0.00 | 77 | 1009.1 |
| 20260505060111 | 50 | 178 | 2.6 | 4.3 | 0.00 | 0.00 | 0.00 | 76 | 1009.0 |
| 20260505054640 | 51 | 198 | 2.6 | 5.2 | 0.00 | 0.00 | 0.00 | 75 | 1009.0 |
| 20260505053117 | 51 | 184 | 2.6 | 6.1 | 0.00 | 0.00 | 0.00 | 75 | 1009.0 |
| 20260505051646 | 51 | 173 | 1.7 | 4.3 | 0.00 | 0.00 | 0.00 | 74 | 1008.9 |
| 20260505041642 | 57 | 188 | 3.5 | 7.8 | 0.00 | 0.00 | 0.00 | 64 | 1008.3 |
| 20260505040001 | 58 | 186 | 4.3 | 7.8 | 0.00 | 0.00 | 0.00 | 63 | 1008.1 |
| 20260505034519 | 57 | 189 | 3.5 | 8.7 | 0.00 | 0.00 | 0.00 | 63 | 1008.1 |
| 20260505033145 | 57 | 198 | 3.5 | 8.7 | 0.00 | 0.00 | 0.00 | 64 | 1008.0 |
| 20260505031551 | 56 | 198 | 5.2 | 13.0 | 0.00 | 0.00 | 0.00 | 68 | 1008.0 |
| 20260505030028 | 54 | 220 | 3.5 | 8.7 | 0.00 | 0.00 | 0.00 | 71 | 1008.1 |
| 20260505024524 | 53 | 184 | 3.5 | 7.0 | 0.00 | 0.00 | 0.00 | 72 | 1008.2 |
| 20260505023023 | 52 | 169 | 2.6 | 6.1 | 0.00 | 0.00 | 0.00 | 74 | 1008.1 |
| 20260505021635 | 51 | 198 | 1.7 | 4.3 | 0.00 | 0.00 | 0.00 | 77 | 1008.1 |
| 20260505020037 | 50 | 186 | 2.6 | 6.1 | 0.00 | 0.00 | 0.00 | 78 | 1008.1 |
| 20260505014526 | 50 | 187 | 0.9 | 5.2 | 0.00 | 0.00 | 0.00 | 77 | 1008.1 |
| 20260505013142 | 50 | 197 | 1.7 | 5.2 | 0.00 | 0.00 | 0.00 | 78 | 1007.9 |
| 20260505011612 | 50 | 219 | 1.7 | 3.5 | 0.00 | 0.00 | 0.00 | 77 | 1007.7 |
| 20260505010137 | 50 | 183 | 1.7 | 4.3 | 0.00 | 0.00 | 0.00 | 76 | 1007.5 |
| 20260505004634 | 50 | 225 | 0.0 | 2.6 | 0.00 | 0.00 | 0.00 | 75 | 1007.4 |
| 20260505003113 | 51 | 172 | 0.0 | 1.7 | 0.00 | 0.00 | 0.00 | 73 | 1007.2 |